COSMOS 1275 DEB, 42095

Orbit data source: Space-Track

COSMOS 1275 DEB, 42095 is space debris in LEO originally from a launch on Thu, 04 Jun 1981 UTC launched from the Plesetsk Missile And Space Complex (PKMTR). Debris objects in space refer to the collection of defunct objects orbiting the Earth. Examples of debris include non-operational satellites, rocket bodies, and fragments generated from explosions, collisions, or faulty payload assembly.

Loading next visibility...
Identifier
42095, 1981-053PF
Orbit
LEO
Country
Flag of CISCIS
Related business
Manufacturer
Unknown
Mission
Spacecraft
Bus & Motor
Unknown
Mass
Unknown
Launch date (UTC)
1981-06-04 (45 years ago)
Launch vehicle
Unknown
Launch site
Plesetsk Missile And Space Complex (PKMTR)
Object type
Payload
Rocket body
Debris
Shape & HBR
Unknown shape, 0.1 m
Radar Cross Section
Small (<0.1 m²)

Expand to show TLE details & history
Last TLE update: 3 weeks ago

TLE from 3 weeks ago
0 COSMOS 1275 DEB
1 42095U 81053PF  25334.28601870  .00001629  00000-0  15056-2 0  9993
2 42095  82.7528 331.4170 0130992  46.6391 314.5590 13.78135492602194
Epoch: 2025-11-30T06:51Z
TLE epoch observation values (Epoch: 2025-11-30T06:51:52.015Z)
Latitude
-0.00007°
Longitude
159.04821°
Altitude
906.501 km
Speed
7.432 km/s
True Right ascension
22h 05m 40s
True Declination
0° 00' 00"
Sunlit
Object was in daylight at epoch
Visualization orbit readout
Latitude
Unknown
Longitude
Unknown
Altitude
Unknown
Speed
Unknown
Apparent Right ascension
Unknown
Apparent Declination
Unknown
Sunlit
N/A
Visualization observer readout
Local Sidereal Time
11:03:24
Azimuth
Unknown
Elevation
Unknown
Doppler factor
Unknown
Orbital elements
Apogee altitude
1,063.882 km
Perigee altitude
871.434 km
Semi-major axis
7,345.795 km
Eccentricity
0.0131
Inclination
82.7528°
RAAN
331.417°
Arg. of periapsis
46.6391°
True anomaly
313.47709°
Mean anomaly
314.559°
Eccentric anomaly
314.01929°
Mean motion
3.44735 °/min
Orbital period
104.43 mins
BSTAR
0.0015056
Loading maneuver chart data...
Computing Atmospheric mass density...
Loading historical data...
Loading historical data...
Loading historical data...
Loading historical data...
Loading historical data...
Loading historical data...
Loading historical data...

Documentation

Showing up to 5 results
|